Tracking 28790 objects as of 19-Apr-2024
HD Live streaming from Space Station
objects crossing your sky now

CZ-4 DEB

Track CZ-4 DEB now!
10-day predictions


NORAD ID: 28072
Int'l Code: 1999-057NC
Perigee: 686.8 km
Apogee: 818.7 km
Inclination: 98.7 °
Period: 99.7 minutes
Semi major axis: 7123 km
RCS: 0.014 m2 (small)
Launch date: October 14, 1999
Source: People's Republic of China (PRC)
Launch site: Taiyaun Space Center, China (TSC)

Note: This is SATELLITE DEBRIS
Your satellite tracking list
Your tracking list is empty




NASA's NSSDC Master Catalog

Two Line Element Set (TLE):
1 28072U 99057NC  24109.38715608  .00002820  00000-0  79826-3 0  9990
2 28072  98.6608 150.5529 0092608 243.1190 185.7318 14.43904810105272
Source of the keplerian elements: AFSPC